This is the latest recevied weather packets stored in our database for station/object DO7CRZ-11. If no packets are shown the sender has not sent any weather packets the latest 10 day(s).
| Time | Temp. | Humidity | Pressure | Rain* | Wind** | Luminosity | Snow |
|---|---|---|---|---|---|---|---|
| 1777484528 | 8.89° C | 33% | 1029.5 hPa | 0 mm | - | 20 W/m² | - |
| 1777483934 | 8.89° C | 33% | 1029.4 hPa | 0 mm | - | 24 W/m² | - |
| 1777483334 | 9.44° C | 33% | 1029.2 hPa | 0 mm | - | 28 W/m² | - |
| 1777482726 | 9.44° C | 32% | 1029.2 hPa | 0 mm | - | 33 W/m² | - |
| 1777482129 | 10.56° C | 32% | 1029.1 hPa | 0 mm | - | 49 W/m² | - |
| 1777481532 | 10.56° C | 31% | 1029 hPa | 0 mm | - | 66 W/m² | - |
| 1777480935 | 11.11° C | 31% | 1028.9 hPa | 0 mm | - | 83 W/m² | - |
| 1777480327 | 11.11° C | 31% | 1028.9 hPa | 0 mm | - | 103 W/m² | - |
| 1777479733 | 11.11° C | 31% | 1028.9 hPa | 0 mm | - | 127 W/m² | - |
| 1777479133 | 11.11° C | 30% | 1028.7 hPa | 0 mm | - | 152 W/m² | - |
| 1777478535 | 11.67° C | 30% | 1028.8 hPa | 0 mm | - | 175 W/m² | - |
| 1777477928 | 11.67° C | 30% | 1028.8 hPa | 0 mm | - | 199 W/m² | - |
| 1777477331 | 11.67° C | 28% | 1028.7 hPa | 0 mm | - | 227 W/m² | - |
| 1777476734 | 11.67° C | 29% | 1028.6 hPa | 0 mm | - | 252 W/m² | - |
| 1777476126 | 12.22° C | 30% | 1028.6 hPa | 0 mm | - | 278 W/m² | - |
| 1777475532 | 12.22° C | 29% | 1028.5 hPa | 0 mm | - | 308 W/m² | - |
| 1777474334 | 12.22° C | 30% | 1028.5 hPa | 0 mm | - | 366 W/m² | - |
| 1777473727 | 12.22° C | 28% | 1028.4 hPa | 0 mm | - | 396 W/m² | - |
| 1777473131 | 12.22° C | 28% | 1028.5 hPa | 0 mm | - | 420 W/m² | - |
| 1777472533 | 12.22° C | 27% | 1028.4 hPa | 0 mm | - | 443 W/m² | - |
| 1777471926 | 12.78° C | 29% | 1028.4 hPa | 0 mm | - | 466 W/m² | - |
| 1777471329 | 12.78° C | 28% | 1028.4 hPa | 0 mm | - | 492 W/m² | - |
| 1777470732 | 12.78° C | 28% | 1028.4 hPa | 0 mm | - | 515 W/m² | - |
| 1777470135 | 12.22° C | 27% | 1028.3 hPa | 0 mm | - | 536 W/m² | - |
| 1777469527 | 12.22° C | 29% | 1028.2 hPa | 0 mm | - | 552 W/m² | - |
* Rain latest hour (hover to see other rain measurements)
** Current wind speed in m/s (hover to see current wind gust speed)